Year,Month,Day,Hour,Minute,Value (Times are PST for temperature in C)
2020,10,02,00,00,14.10
2020,10,02,00,01,14.10
2020,10,02,00,02,14.10
2020,10,02,00,03,14.10
2020,10,02,00,04,14.10
2020,10,02,00,05,14.10
2020,10,02,00,06,14.10
2020,10,02,00,07,14.00
2020,10,02,00,08,14.00
2020,10,02,00,09,14.00
2020,10,02,00,10,14.00
2020,10,02,00,11,13.90
2020,10,02,00,12,13.90
2020,10,02,00,13,13.90
2020,10,02,00,14,13.90
2020,10,02,00,15,13.90
2020,10,02,00,16,13.90
2020,10,02,00,17,13.90
2020,10,02,00,18,13.90
2020,10,02,00,19,13.90
2020,10,02,00,20,13.90
2020,10,02,00,21,14.00
2020,10,02,00,22,13.90
2020,10,02,00,23,14.00
2020,10,02,00,24,14.00
2020,10,02,00,25,14.00
2020,10,02,00,26,14.00
2020,10,02,00,27,14.00
2020,10,02,00,28,14.00
2020,10,02,00,29,14.10
2020,10,02,00,30,14.10
2020,10,02,00,31,14.10
2020,10,02,00,32,14.10
2020,10,02,00,33,14.10
2020,10,02,00,34,14.10
2020,10,02,00,35,14.10
2020,10,02,00,36,14.10
2020,10,02,00,37,14.20
2020,10,02,00,38,14.20
2020,10,02,00,39,14.20
2020,10,02,00,40,14.20
2020,10,02,00,41,14.20
2020,10,02,00,42,14.20
2020,10,02,00,43,14.20
2020,10,02,00,44,14.20
2020,10,02,00,45,14.20
2020,10,02,00,46,14.20
2020,10,02,00,47,14.20
2020,10,02,00,48,14.20
2020,10,02,00,49,14.20
2020,10,02,00,50,14.20
2020,10,02,00,51,14.20
2020,10,02,00,52,14.20
2020,10,02,00,53,14.20
2020,10,02,00,54,14.10
2020,10,02,00,55,14.10
2020,10,02,00,56,14.10
2020,10,02,00,57,14.10
2020,10,02,00,58,14.10
2020,10,02,00,59,14.10
2020,10,02,01,00,14.00
2020,10,02,01,01,14.00
2020,10,02,01,02,14.00
2020,10,02,01,03,14.00
2020,10,02,01,04,13.90
2020,10,02,01,05,13.90
2020,10,02,01,06,13.90
2020,10,02,01,07,13.90
2020,10,02,01,08,13.90
2020,10,02,01,09,13.90
2020,10,02,01,10,13.90
2020,10,02,01,11,13.90
2020,10,02,01,12,13.90
2020,10,02,01,13,13.90
2020,10,02,01,14,13.90
2020,10,02,01,15,13.90
2020,10,02,01,16,13.90
2020,10,02,01,17,13.90
2020,10,02,01,18,13.90
2020,10,02,01,19,13.90
2020,10,02,01,20,13.90
2020,10,02,01,21,13.90
2020,10,02,01,22,13.90
2020,10,02,01,23,13.90
2020,10,02,01,24,13.90
2020,10,02,01,25,13.90
2020,10,02,01,26,13.90
2020,10,02,01,27,13.90
2020,10,02,01,28,13.90
2020,10,02,01,29,13.90
2020,10,02,01,30,13.90
2020,10,02,01,31,13.80
2020,10,02,01,32,13.80
2020,10,02,01,33,13.80
2020,10,02,01,34,13.80
2020,10,02,01,35,13.90
2020,10,02,01,36,13.90
2020,10,02,01,37,13.90
2020,10,02,01,38,13.90
2020,10,02,01,39,13.90
2020,10,02,01,40,13.90
2020,10,02,01,41,13.90
2020,10,02,01,42,13.90
2020,10,02,01,43,13.90
2020,10,02,01,44,13.80
2020,10,02,01,45,13.80
2020,10,02,01,46,13.80
2020,10,02,01,47,13.80
2020,10,02,01,48,13.80
2020,10,02,01,49,13.80
2020,10,02,01,50,13.80
2020,10,02,01,51,13.80
2020,10,02,01,52,13.80
2020,10,02,01,53,13.70
2020,10,02,01,54,13.70
2020,10,02,01,55,13.70
2020,10,02,01,56,13.70
2020,10,02,01,57,13.70
2020,10,02,01,58,13.70
2020,10,02,01,59,13.60
2020,10,02,02,00,13.60
2020,10,02,02,01,13.60
2020,10,02,02,02,13.60
2020,10,02,02,03,13.60
2020,10,02,02,04,13.60
2020,10,02,02,05,13.60
2020,10,02,02,06,13.60
2020,10,02,02,07,13.60
2020,10,02,02,08,13.60
2020,10,02,02,09,13.60
2020,10,02,02,10,13.60
2020,10,02,02,11,13.60
2020,10,02,02,12,13.60
2020,10,02,02,13,13.60
2020,10,02,02,14,13.60
2020,10,02,02,15,13.60
2020,10,02,02,16,13.60
2020,10,02,02,17,13.60
2020,10,02,02,18,13.60
2020,10,02,02,19,13.60
2020,10,02,02,20,13.60
2020,10,02,02,21,13.60
2020,10,02,02,22,13.60
2020,10,02,02,23,13.60
2020,10,02,02,24,13.60
2020,10,02,02,25,13.50
2020,10,02,02,26,13.50
2020,10,02,02,27,13.50
2020,10,02,02,28,13.50
2020,10,02,02,29,13.60
2020,10,02,02,30,13.60
2020,10,02,02,31,13.50
2020,10,02,02,32,13.50
2020,10,02,02,33,13.50
2020,10,02,02,34,13.50
2020,10,02,02,35,13.50
2020,10,02,02,36,13.50
2020,10,02,02,37,13.50
2020,10,02,02,38,13.50
2020,10,02,02,39,13.50
2020,10,02,02,40,13.50
2020,10,02,02,41,13.50
2020,10,02,02,42,13.50
2020,10,02,02,43,13.50
2020,10,02,02,44,13.50
2020,10,02,02,45,13.50
2020,10,02,02,46,13.50
2020,10,02,02,47,13.50
2020,10,02,02,48,13.50
2020,10,02,02,49,13.40
2020,10,02,02,50,13.40
2020,10,02,02,51,13.40
2020,10,02,02,52,13.40
2020,10,02,02,53,13.40
2020,10,02,02,54,13.40
2020,10,02,02,55,13.40
2020,10,02,02,56,13.40
2020,10,02,02,57,13.40
2020,10,02,02,58,13.40
2020,10,02,02,59,13.40
2020,10,02,03,00,13.40
2020,10,02,03,01,13.40
2020,10,02,03,02,13.40
2020,10,02,03,03,13.40
2020,10,02,03,04,13.40
2020,10,02,03,05,13.50
2020,10,02,03,06,13.50
2020,10,02,03,07,13.50
2020,10,02,03,08,13.50
2020,10,02,03,09,13.50
2020,10,02,03,10,13.50
2020,10,02,03,11,13.50
2020,10,02,03,12,13.50
2020,10,02,03,13,13.40
2020,10,02,03,14,13.40
2020,10,02,03,15,13.40
2020,10,02,03,16,13.40
2020,10,02,03,17,13.40
2020,10,02,03,18,13.40
2020,10,02,03,19,13.40
2020,10,02,03,20,13.50
2020,10,02,03,21,13.50
2020,10,02,03,22,13.50
2020,10,02,03,23,13.50
2020,10,02,03,24,13.50
2020,10,02,03,25,13.40
2020,10,02,03,26,13.40
2020,10,02,03,27,13.40
2020,10,02,03,28,13.40
2020,10,02,03,29,13.40
2020,10,02,03,30,13.40
2020,10,02,03,31,13.40
2020,10,02,03,32,13.30
2020,10,02,03,33,13.30
2020,10,02,03,34,13.30
2020,10,02,03,35,13.30
2020,10,02,03,36,13.30
2020,10,02,03,37,13.30
2020,10,02,03,38,13.40
2020,10,02,03,39,13.40
2020,10,02,03,40,13.40
2020,10,02,03,41,13.40
2020,10,02,03,42,13.40
2020,10,02,03,43,13.50
2020,10,02,03,44,13.50
2020,10,02,03,45,13.50
2020,10,02,03,46,13.50
2020,10,02,03,47,13.50
2020,10,02,03,48,13.50
2020,10,02,03,49,13.50
2020,10,02,03,50,13.50
2020,10,02,03,51,13.60
2020,10,02,03,52,13.60
2020,10,02,03,53,13.60
2020,10,02,03,54,13.60
2020,10,02,03,55,13.60
2020,10,02,03,56,13.70
2020,10,02,03,57,13.60
2020,10,02,03,58,13.60
2020,10,02,03,59,13.60
2020,10,02,04,00,13.60
2020,10,02,04,01,13.50
2020,10,02,04,02,13.50
2020,10,02,04,03,13.50
2020,10,02,04,04,13.40
2020,10,02,04,05,13.40
2020,10,02,04,06,13.40
2020,10,02,04,07,13.40
2020,10,02,04,08,13.40
2020,10,02,04,09,13.40
2020,10,02,04,10,13.40
2020,10,02,04,11,13.40
2020,10,02,04,12,13.40
2020,10,02,04,13,13.40
2020,10,02,04,14,13.40
2020,10,02,04,15,13.40
2020,10,02,04,16,13.40
2020,10,02,04,17,13.40
2020,10,02,04,18,13.40
2020,10,02,04,19,13.40
2020,10,02,04,20,13.40
2020,10,02,04,21,13.40
2020,10,02,04,22,13.40
2020,10,02,04,23,13.40
2020,10,02,04,24,13.40
2020,10,02,04,25,13.40
2020,10,02,04,26,13.40
2020,10,02,04,27,13.30
2020,10,02,04,28,13.30
2020,10,02,04,29,13.30
2020,10,02,04,30,13.30
2020,10,02,04,31,13.30
2020,10,02,04,32,13.20
2020,10,02,04,33,13.20
2020,10,02,04,34,13.20
2020,10,02,04,35,13.20
2020,10,02,04,36,13.20
2020,10,02,04,37,13.20
2020,10,02,04,38,13.20
2020,10,02,04,39,13.20
2020,10,02,04,40,13.20
2020,10,02,04,41,13.20
2020,10,02,04,42,13.20
2020,10,02,04,43,13.20
2020,10,02,04,44,13.30
2020,10,02,04,45,13.30
2020,10,02,04,46,13.30
2020,10,02,04,47,13.30
2020,10,02,04,48,13.30
2020,10,02,04,49,13.30
2020,10,02,04,50,13.30
2020,10,02,04,51,13.30
2020,10,02,04,52,13.30
2020,10,02,04,53,13.30
2020,10,02,04,54,13.30
2020,10,02,04,55,13.30
2020,10,02,04,56,13.30
2020,10,02,04,57,13.30
2020,10,02,04,58,13.30
2020,10,02,04,59,13.30
2020,10,02,05,00,13.30
2020,10,02,05,01,13.30
2020,10,02,05,02,13.30
2020,10,02,05,03,13.30
2020,10,02,05,04,13.30
2020,10,02,05,05,13.30
2020,10,02,05,06,13.30
2020,10,02,05,07,13.30
2020,10,02,05,08,13.30
2020,10,02,05,09,13.30
2020,10,02,05,10,13.30
2020,10,02,05,11,13.30
2020,10,02,05,12,13.30
2020,10,02,05,13,13.30
2020,10,02,05,14,13.30
2020,10,02,05,15,13.30
2020,10,02,05,16,13.30
2020,10,02,05,17,13.30
2020,10,02,05,18,13.30
2020,10,02,05,19,13.30
2020,10,02,05,20,13.30
2020,10,02,05,21,13.30
2020,10,02,05,22,13.30
2020,10,02,05,23,13.30
2020,10,02,05,24,13.20
2020,10,02,05,25,13.30
2020,10,02,05,26,13.30
2020,10,02,05,27,13.30
2020,10,02,05,28,13.20
2020,10,02,05,29,13.20
2020,10,02,05,30,13.20
2020,10,02,05,31,13.20
2020,10,02,05,32,13.10
2020,10,02,05,33,13.10
2020,10,02,05,34,13.10
2020,10,02,05,35,13.10
2020,10,02,05,36,13.10
2020,10,02,05,37,13.10
2020,10,02,05,38,13.10
2020,10,02,05,39,13.10
2020,10,02,05,40,13.10
2020,10,02,05,41,13.10
2020,10,02,05,42,13.10
2020,10,02,05,43,13.10
2020,10,02,05,44,13.10
2020,10,02,05,45,13.10
2020,10,02,05,46,13.10
2020,10,02,05,47,13.10
2020,10,02,05,48,13.10
2020,10,02,05,49,13.10
2020,10,02,05,50,13.10
2020,10,02,05,51,13.10
2020,10,02,05,52,13.10
2020,10,02,05,53,13.10
2020,10,02,05,54,13.10
2020,10,02,05,55,13.10
2020,10,02,05,56,13.10
2020,10,02,05,57,13.10
2020,10,02,05,58,13.10
2020,10,02,05,59,13.10
2020,10,02,06,00,13.10
2020,10,02,06,01,13.10
2020,10,02,06,02,13.10
2020,10,02,06,03,13.10
2020,10,02,06,04,13.10
2020,10,02,06,05,13.10
2020,10,02,06,06,13.10
2020,10,02,06,07,13.10
2020,10,02,06,08,13.10
2020,10,02,06,09,13.10
2020,10,02,06,10,13.10
2020,10,02,06,11,13.10
2020,10,02,06,12,13.10
2020,10,02,06,13,13.10
2020,10,02,06,14,13.10
2020,10,02,06,15,13.10
2020,10,02,06,16,13.10
2020,10,02,06,17,13.10
2020,10,02,06,18,13.20
2020,10,02,06,19,13.20
2020,10,02,06,20,13.20
2020,10,02,06,21,13.20
2020,10,02,06,22,13.20
2020,10,02,06,23,13.20
2020,10,02,06,24,13.20
2020,10,02,06,25,13.20
2020,10,02,06,26,13.20
2020,10,02,06,27,13.20
2020,10,02,06,28,13.20
2020,10,02,06,29,13.20
2020,10,02,06,30,13.20
2020,10,02,06,31,13.20
2020,10,02,06,32,13.20
2020,10,02,06,33,13.20
2020,10,02,06,34,13.20
2020,10,02,06,35,13.20
2020,10,02,06,36,13.20
2020,10,02,06,37,13.20
2020,10,02,06,38,13.20
2020,10,02,06,39,13.20
2020,10,02,06,40,13.20
2020,10,02,06,41,13.20
2020,10,02,06,42,13.20
2020,10,02,06,43,13.20
2020,10,02,06,44,13.20
2020,10,02,06,45,13.20
2020,10,02,06,46,13.20
2020,10,02,06,47,13.20
2020,10,02,06,48,13.20
2020,10,02,06,49,13.20
2020,10,02,06,50,13.20
2020,10,02,06,51,13.20
2020,10,02,06,52,13.20
2020,10,02,06,53,13.20
2020,10,02,06,54,13.20
2020,10,02,06,55,13.20
2020,10,02,06,56,13.10
2020,10,02,06,57,13.10
2020,10,02,06,58,13.10
2020,10,02,06,59,13.10
2020,10,02,07,00,13.10
2020,10,02,07,01,13.00
2020,10,02,07,02,13.00
2020,10,02,07,03,13.00
2020,10,02,07,04,12.90
2020,10,02,07,05,12.90
2020,10,02,07,06,12.90
2020,10,02,07,07,12.80
2020,10,02,07,08,12.80
2020,10,02,07,09,12.80
2020,10,02,07,10,12.80
2020,10,02,07,11,12.80
2020,10,02,07,12,12.80
2020,10,02,07,13,12.80
2020,10,02,07,14,12.80
2020,10,02,07,15,12.80
2020,10,02,07,16,12.80
2020,10,02,07,17,12.80
2020,10,02,07,18,12.70
2020,10,02,07,19,12.70
2020,10,02,07,20,12.70
2020,10,02,07,21,12.70
2020,10,02,07,22,12.80
2020,10,02,07,23,12.80
2020,10,02,07,24,12.80
2020,10,02,07,25,12.80
2020,10,02,07,26,12.80
2020,10,02,07,27,12.80
2020,10,02,07,28,12.80
2020,10,02,07,29,12.80
2020,10,02,07,30,12.80
2020,10,02,07,31,12.80
2020,10,02,07,32,12.80
2020,10,02,07,33,12.80
2020,10,02,07,34,12.80
2020,10,02,07,35,12.80
2020,10,02,07,36,12.80
2020,10,02,07,37,12.80
2020,10,02,07,38,12.80
2020,10,02,07,39,12.80
2020,10,02,07,40,12.80
2020,10,02,07,41,12.70
2020,10,02,07,42,12.70
2020,10,02,07,43,12.70
2020,10,02,07,44,12.70
2020,10,02,07,45,12.70
2020,10,02,07,46,12.70
2020,10,02,07,47,12.70
2020,10,02,07,48,12.70
2020,10,02,07,49,12.70
2020,10,02,07,50,12.70
2020,10,02,07,51,12.70
2020,10,02,07,52,12.70
2020,10,02,07,53,12.80
2020,10,02,07,54,12.80
2020,10,02,07,55,12.80
2020,10,02,07,56,12.70
2020,10,02,07,57,12.80
2020,10,02,07,58,12.80
2020,10,02,07,59,12.80
2020,10,02,08,00,12.80
2020,10,02,08,01,12.80
2020,10,02,08,02,12.80
2020,10,02,08,03,12.80
2020,10,02,08,04,12.80
2020,10,02,08,05,12.80
2020,10,02,08,06,12.80
2020,10,02,08,07,12.80
2020,10,02,08,08,12.90
2020,10,02,08,09,12.90
2020,10,02,08,10,12.90
2020,10,02,08,11,12.90
2020,10,02,08,12,12.90
2020,10,02,08,13,12.90
2020,10,02,08,14,13.00
2020,10,02,08,15,13.00
2020,10,02,08,16,13.00
2020,10,02,08,17,13.00
2020,10,02,08,18,13.00
2020,10,02,08,19,13.10
2020,10,02,08,20,13.10
2020,10,02,08,21,13.10
2020,10,02,08,22,13.10
2020,10,02,08,23,13.10
2020,10,02,08,24,13.10
2020,10,02,08,25,13.10
2020,10,02,08,26,13.20
2020,10,02,08,27,13.20
2020,10,02,08,28,13.20
2020,10,02,08,29,13.20
2020,10,02,08,30,13.20
2020,10,02,08,31,13.20
2020,10,02,08,32,13.30
2020,10,02,08,33,13.30
2020,10,02,08,34,13.30
2020,10,02,08,35,13.30
2020,10,02,08,36,13.30
2020,10,02,08,37,13.40
2020,10,02,08,38,13.40
2020,10,02,08,39,13.40
2020,10,02,08,40,13.40
2020,10,02,08,41,13.40
2020,10,02,08,42,13.40
2020,10,02,08,43,13.40
2020,10,02,08,44,13.40
2020,10,02,08,45,13.50
2020,10,02,08,46,13.50
2020,10,02,08,47,13.60
2020,10,02,08,48,13.60
2020,10,02,08,49,13.70
2020,10,02,08,50,13.70
2020,10,02,08,51,13.80
2020,10,02,08,52,13.80
2020,10,02,08,53,13.80
2020,10,02,08,54,13.90
2020,10,02,08,55,13.90
2020,10,02,08,56,13.90
2020,10,02,08,57,14.00
2020,10,02,08,58,14.10
2020,10,02,08,59,14.10
2020,10,02,09,00,14.10
2020,10,02,09,01,14.20
2020,10,02,09,02,14.20
2020,10,02,09,03,14.30
2020,10,02,09,04,14.30
2020,10,02,09,05,14.40
2020,10,02,09,06,14.40
2020,10,02,09,07,14.50
2020,10,02,09,08,14.60
2020,10,02,09,09,14.60
2020,10,02,09,10,14.70
2020,10,02,09,11,14.80
2020,10,02,09,12,14.80
2020,10,02,09,13,14.80
2020,10,02,09,14,14.90
2020,10,02,09,15,14.90
2020,10,02,09,16,15.00
2020,10,02,09,17,15.00
2020,10,02,09,18,15.00
2020,10,02,09,19,15.00
2020,10,02,09,20,15.10
2020,10,02,09,21,15.10
2020,10,02,09,22,15.20
2020,10,02,09,23,15.20
2020,10,02,09,24,15.20
2020,10,02,09,25,15.20
2020,10,02,09,26,15.10
2020,10,02,09,27,15.10
2020,10,02,09,28,15.20
2020,10,02,09,29,15.20
2020,10,02,09,30,15.20
2020,10,02,09,31,15.20
2020,10,02,09,32,15.20
2020,10,02,09,33,15.20
2020,10,02,09,34,15.10
2020,10,02,09,35,15.10
2020,10,02,09,36,15.00
2020,10,02,09,37,14.90
2020,10,02,09,38,14.90
2020,10,02,09,39,14.90
2020,10,02,09,40,14.90
2020,10,02,09,41,14.90
2020,10,02,09,42,15.00
2020,10,02,09,43,15.10
2020,10,02,09,44,15.10
2020,10,02,09,45,15.20
2020,10,02,09,46,15.20
2020,10,02,09,47,15.30
2020,10,02,09,48,15.40
2020,10,02,09,49,15.40
2020,10,02,09,50,15.50
2020,10,02,09,51,15.60
2020,10,02,09,52,15.60
2020,10,02,09,53,15.70
2020,10,02,09,54,15.80
2020,10,02,09,55,15.90
2020,10,02,09,56,15.90
2020,10,02,09,57,16.00
2020,10,02,09,58,16.00
2020,10,02,09,59,16.10
2020,10,02,10,00,16.10
2020,10,02,10,01,16.20
2020,10,02,10,02,16.20
2020,10,02,10,03,16.30
2020,10,02,10,04,16.30
2020,10,02,10,05,16.40
2020,10,02,10,06,16.50
2020,10,02,10,07,16.60
2020,10,02,10,08,16.60
2020,10,02,10,09,16.70
2020,10,02,10,10,16.80
2020,10,02,10,11,16.90
2020,10,02,10,12,17.00
2020,10,02,10,13,17.10
2020,10,02,10,14,17.20
2020,10,02,10,15,17.20
2020,10,02,10,16,17.30
2020,10,02,10,17,17.40
2020,10,02,10,18,17.50
2020,10,02,10,19,17.60
2020,10,02,10,20,17.60
2020,10,02,10,21,17.70
2020,10,02,10,22,17.70
2020,10,02,10,23,17.80
2020,10,02,10,24,17.80
2020,10,02,10,25,17.70
2020,10,02,10,26,17.70
2020,10,02,10,27,17.50
2020,10,02,10,28,17.50
2020,10,02,10,29,17.40
2020,10,02,10,30,17.30
2020,10,02,10,31,17.20
2020,10,02,10,32,17.20
2020,10,02,10,33,17.10
2020,10,02,10,34,17.00
2020,10,02,10,35,17.00
2020,10,02,10,36,16.90
2020,10,02,10,37,16.90
2020,10,02,10,38,16.90
2020,10,02,10,39,17.00
2020,10,02,10,40,17.00
2020,10,02,10,41,17.00
2020,10,02,10,42,17.00
2020,10,02,10,43,17.00
2020,10,02,10,44,17.00
2020,10,02,10,45,17.00
2020,10,02,10,46,17.00
2020,10,02,10,47,17.00
2020,10,02,10,48,17.00
2020,10,02,10,49,17.00
2020,10,02,10,50,17.00
2020,10,02,10,51,17.10
2020,10,02,10,52,17.10
2020,10,02,10,53,17.10
2020,10,02,10,54,17.20
2020,10,02,10,55,17.20
2020,10,02,10,56,17.20
2020,10,02,10,57,17.30
2020,10,02,10,58,17.30
2020,10,02,10,59,17.30
2020,10,02,11,00,17.40
2020,10,02,11,01,17.50
2020,10,02,11,02,17.50
2020,10,02,11,03,17.60
2020,10,02,11,04,17.70
2020,10,02,11,05,17.70
2020,10,02,11,06,17.80
2020,10,02,11,07,17.80
2020,10,02,11,08,17.90
2020,10,02,11,09,17.90
2020,10,02,11,10,18.00
2020,10,02,11,11,18.00
2020,10,02,11,12,18.10
2020,10,02,11,13,18.10
2020,10,02,11,14,18.10
2020,10,02,11,15,18.10
2020,10,02,11,16,18.10
2020,10,02,11,17,18.10
2020,10,02,11,18,18.10
2020,10,02,11,19,18.10
2020,10,02,11,20,18.10
2020,10,02,11,21,18.10
2020,10,02,11,22,18.10
2020,10,02,11,23,18.10
2020,10,02,11,24,18.10
2020,10,02,11,25,18.10
2020,10,02,11,26,18.10
2020,10,02,11,27,18.10
2020,10,02,11,28,18.10
2020,10,02,11,29,18.20
2020,10,02,11,30,18.20
2020,10,02,11,31,18.20
2020,10,02,11,32,18.20
2020,10,02,11,33,18.30
2020,10,02,11,34,18.30
2020,10,02,11,35,18.40
2020,10,02,11,36,18.40
2020,10,02,11,37,18.50
2020,10,02,11,38,18.60
2020,10,02,11,39,18.60
2020,10,02,11,40,18.60
2020,10,02,11,41,18.70
2020,10,02,11,42,18.70
2020,10,02,11,43,18.70
2020,10,02,11,44,18.70
2020,10,02,11,45,18.70
2020,10,02,11,46,18.80
2020,10,02,11,47,18.80
2020,10,02,11,48,18.80
2020,10,02,11,49,18.90
2020,10,02,11,50,18.90
2020,10,02,11,51,18.90
2020,10,02,11,52,19.00
2020,10,02,11,53,19.00
2020,10,02,11,54,19.00
2020,10,02,11,55,19.00
2020,10,02,11,56,19.00
2020,10,02,11,57,19.00
2020,10,02,11,58,19.00
2020,10,02,11,59,19.00
2020,10,02,12,00,18.90
2020,10,02,12,01,18.90
2020,10,02,12,02,18.90
2020,10,02,12,03,18.90
2020,10,02,12,04,18.90
2020,10,02,12,05,18.90
2020,10,02,12,06,18.90
2020,10,02,12,07,18.90
2020,10,02,12,08,18.80
2020,10,02,12,09,18.80
2020,10,02,12,10,18.80
2020,10,02,12,11,18.80
2020,10,02,12,12,18.80
2020,10,02,12,13,18.80
2020,10,02,12,14,18.80
2020,10,02,12,15,18.80
2020,10,02,12,16,18.80
2020,10,02,12,17,18.90
2020,10,02,12,18,18.90
2020,10,02,12,19,19.00
2020,10,02,12,20,19.10
2020,10,02,12,21,19.20
2020,10,02,12,22,19.20
2020,10,02,12,23,19.30
2020,10,02,12,24,19.30
2020,10,02,12,25,19.30
2020,10,02,12,26,19.40
2020,10,02,12,27,19.40
2020,10,02,12,28,19.40
2020,10,02,12,29,19.50
2020,10,02,12,30,19.50
2020,10,02,12,31,19.50
2020,10,02,12,32,19.50
2020,10,02,12,33,19.60
2020,10,02,12,34,19.60
2020,10,02,12,35,19.60
2020,10,02,12,36,19.60
2020,10,02,12,37,19.60
2020,10,02,12,38,19.50
2020,10,02,12,39,19.40
2020,10,02,12,40,19.40
2020,10,02,12,41,19.40
2020,10,02,12,42,19.40
2020,10,02,12,43,19.50
2020,10,02,12,44,19.50
2020,10,02,12,45,19.50
2020,10,02,12,46,19.50
2020,10,02,12,47,19.40
2020,10,02,12,48,19.40
2020,10,02,12,49,19.40
2020,10,02,12,50,19.40
2020,10,02,12,51,19.40
2020,10,02,12,52,19.50
2020,10,02,12,53,19.60
2020,10,02,12,54,19.60
2020,10,02,12,55,19.70
2020,10,02,12,56,19.70
2020,10,02,12,57,19.80
2020,10,02,12,58,19.70
2020,10,02,12,59,19.70
2020,10,02,13,00,19.80
2020,10,02,13,01,19.70
2020,10,02,13,02,19.70
2020,10,02,13,03,19.60
2020,10,02,13,04,19.60
2020,10,02,13,05,19.60
2020,10,02,13,06,19.60
2020,10,02,13,07,19.60
2020,10,02,13,08,19.60
2020,10,02,13,09,19.60
2020,10,02,13,10,19.60
2020,10,02,13,11,19.60
2020,10,02,13,12,19.60
2020,10,02,13,13,19.70
2020,10,02,13,14,19.70
2020,10,02,13,15,19.70
2020,10,02,13,16,19.70
2020,10,02,13,17,19.70
2020,10,02,13,18,19.80
2020,10,02,13,19,19.80
2020,10,02,13,20,19.80
2020,10,02,13,21,19.80
2020,10,02,13,22,19.80
2020,10,02,13,23,19.80
2020,10,02,13,24,19.80
2020,10,02,13,25,19.80
2020,10,02,13,26,19.80
2020,10,02,13,27,19.80
2020,10,02,13,28,19.80
2020,10,02,13,29,19.80
2020,10,02,13,30,19.80
2020,10,02,13,31,19.80
2020,10,02,13,32,19.70
2020,10,02,13,33,19.70
2020,10,02,13,34,19.70
2020,10,02,13,35,19.70
2020,10,02,13,36,19.70
2020,10,02,13,37,19.70
2020,10,02,13,38,19.70
2020,10,02,13,39,19.70
2020,10,02,13,40,19.70
2020,10,02,13,41,19.70
2020,10,02,13,42,19.70
2020,10,02,13,43,19.60
2020,10,02,13,44,19.60
2020,10,02,13,45,19.50
2020,10,02,13,46,19.40
2020,10,02,13,47,19.40
2020,10,02,13,48,19.40
2020,10,02,13,49,19.40
2020,10,02,13,50,19.40
2020,10,02,13,51,19.30
2020,10,02,13,52,19.30
2020,10,02,13,53,19.30
2020,10,02,13,54,19.20
2020,10,02,13,55,19.20
2020,10,02,13,56,19.20
2020,10,02,13,57,19.20
2020,10,02,13,58,19.20
2020,10,02,13,59,19.20
2020,10,02,14,00,19.20
2020,10,02,14,01,19.20
2020,10,02,14,02,19.20
2020,10,02,14,03,19.20
2020,10,02,14,04,19.20
2020,10,02,14,05,19.30
2020,10,02,14,06,19.20
2020,10,02,14,07,19.10
2020,10,02,14,08,19.10
2020,10,02,14,09,19.10
2020,10,02,14,10,19.10
2020,10,02,14,11,19.10
2020,10,02,14,12,19.20
2020,10,02,14,13,19.20
2020,10,02,14,14,19.20
2020,10,02,14,15,19.30
2020,10,02,14,16,19.40
2020,10,02,14,17,19.40
2020,10,02,14,18,19.50
2020,10,02,14,19,19.60
2020,10,02,14,20,19.60
2020,10,02,14,21,19.70
2020,10,02,14,22,19.70
2020,10,02,14,23,19.80
2020,10,02,14,24,19.80
2020,10,02,14,25,19.90
2020,10,02,14,26,20.00
2020,10,02,14,27,20.10
2020,10,02,14,28,20.10
2020,10,02,14,29,20.20
2020,10,02,14,30,20.20
2020,10,02,14,31,20.20
2020,10,02,14,32,20.20
2020,10,02,14,33,20.30
2020,10,02,14,34,20.30
2020,10,02,14,35,20.40
2020,10,02,14,36,20.40
2020,10,02,14,37,20.50
2020,10,02,14,38,20.50
2020,10,02,14,39,20.60
2020,10,02,14,40,20.60
2020,10,02,14,41,20.70
2020,10,02,14,42,20.70
2020,10,02,14,43,20.70
2020,10,02,14,44,20.70
2020,10,02,14,45,20.70
2020,10,02,14,46,20.70
2020,10,02,14,47,20.70
2020,10,02,14,48,20.70
2020,10,02,14,49,20.70
2020,10,02,14,50,20.70
2020,10,02,14,51,20.70
2020,10,02,14,52,20.70
2020,10,02,14,53,20.70
2020,10,02,14,54,20.60
2020,10,02,14,55,20.60
2020,10,02,14,56,20.60
2020,10,02,14,57,20.60
2020,10,02,14,58,20.60
2020,10,02,14,59,20.60
2020,10,02,15,00,20.60
2020,10,02,15,01,20.70
2020,10,02,15,02,20.70
2020,10,02,15,03,20.80
2020,10,02,15,04,20.80
2020,10,02,15,05,20.80
2020,10,02,15,06,20.90
2020,10,02,15,07,20.90
2020,10,02,15,08,20.90
2020,10,02,15,09,20.90
2020,10,02,15,10,21.00
2020,10,02,15,11,21.10
2020,10,02,15,12,21.10
2020,10,02,15,13,21.10
2020,10,02,15,14,21.20
2020,10,02,15,15,21.20
2020,10,02,15,16,21.30
2020,10,02,15,17,21.40
2020,10,02,15,18,21.40
2020,10,02,15,19,21.50
2020,10,02,15,20,21.60
2020,10,02,15,21,21.70
2020,10,02,15,22,21.70
2020,10,02,15,23,21.80
2020,10,02,15,24,21.80
2020,10,02,15,25,21.80
2020,10,02,15,26,21.80
2020,10,02,15,27,21.80
2020,10,02,15,28,21.70
2020,10,02,15,29,21.70
2020,10,02,15,30,21.60
2020,10,02,15,31,21.60
2020,10,02,15,32,21.60
2020,10,02,15,33,21.50
2020,10,02,15,34,21.50
2020,10,02,15,35,21.50
2020,10,02,15,36,21.50
2020,10,02,15,37,21.60
2020,10,02,15,38,21.50
2020,10,02,15,39,21.50
2020,10,02,15,40,21.40
2020,10,02,15,41,21.30
2020,10,02,15,42,21.30
2020,10,02,15,43,21.20
2020,10,02,15,44,21.20
2020,10,02,15,45,21.20
2020,10,02,15,46,21.10
2020,10,02,15,47,21.10
2020,10,02,15,48,21.00
2020,10,02,15,49,21.00
2020,10,02,15,50,20.90
2020,10,02,15,51,20.80
2020,10,02,15,52,20.80
2020,10,02,15,53,20.80
2020,10,02,15,54,20.80
2020,10,02,15,55,20.80
2020,10,02,15,56,20.80
2020,10,02,15,57,20.80
2020,10,02,15,58,20.80
2020,10,02,15,59,20.80
2020,10,02,16,00,20.90
2020,10,02,16,01,20.90
2020,10,02,16,02,20.90
2020,10,02,16,03,20.90
2020,10,02,16,04,20.90
2020,10,02,16,05,20.90
2020,10,02,16,06,20.80
2020,10,02,16,07,20.80
2020,10,02,16,08,20.80
2020,10,02,16,09,20.80
2020,10,02,16,10,20.90
2020,10,02,16,11,20.90
2020,10,02,16,12,20.90
2020,10,02,16,13,20.90
2020,10,02,16,14,20.90
2020,10,02,16,15,20.90
2020,10,02,16,16,20.90
2020,10,02,16,17,20.90
2020,10,02,16,18,20.90
2020,10,02,16,19,20.90
2020,10,02,16,20,20.90
2020,10,02,16,21,20.90
2020,10,02,16,22,20.90
2020,10,02,16,23,20.90
2020,10,02,16,24,20.90
2020,10,02,16,25,20.80
2020,10,02,16,26,20.80
2020,10,02,16,27,20.80
2020,10,02,16,28,20.80
2020,10,02,16,29,20.70
2020,10,02,16,30,20.70
2020,10,02,16,31,20.70
2020,10,02,16,32,20.70
2020,10,02,16,33,20.70
2020,10,02,16,34,20.70
2020,10,02,16,35,20.70
2020,10,02,16,36,20.70
2020,10,02,16,37,20.70
2020,10,02,16,38,20.70
2020,10,02,16,39,20.70
2020,10,02,16,40,20.70
2020,10,02,16,41,20.70
2020,10,02,16,42,20.70
2020,10,02,16,43,20.70
2020,10,02,16,44,20.70
2020,10,02,16,45,20.70
2020,10,02,16,46,20.70
2020,10,02,16,47,20.70
2020,10,02,16,48,20.70
2020,10,02,16,49,20.60
2020,10,02,16,50,20.60
2020,10,02,16,51,20.60
2020,10,02,16,52,20.60
2020,10,02,16,53,20.60
2020,10,02,16,54,20.60
2020,10,02,16,55,20.60
2020,10,02,16,56,20.60
2020,10,02,16,57,20.60
2020,10,02,16,58,20.60
2020,10,02,16,59,20.60
2020,10,02,17,00,20.60
2020,10,02,17,01,20.60
2020,10,02,17,02,20.60
2020,10,02,17,03,20.60
2020,10,02,17,04,20.60
2020,10,02,17,05,20.70
2020,10,02,17,06,20.70
2020,10,02,17,07,20.70
2020,10,02,17,08,20.80
2020,10,02,17,09,20.80
2020,10,02,17,10,20.80
2020,10,02,17,11,20.80
2020,10,02,17,12,20.90
2020,10,02,17,13,20.90
2020,10,02,17,14,20.90
2020,10,02,17,15,20.90
2020,10,02,17,16,20.90
2020,10,02,17,17,20.90
2020,10,02,17,18,20.90
2020,10,02,17,19,20.90